Voltar ao catálogo

SURCAL 159

AtivoMilitarLEO
NORAD 2872·PAYLOAD·🇺🇸 United States

Lançado May 31, 1967 de Vandenberg Space Force Base

Loading…

Próximas Passagens (próximas 24 horas)

TLE

AtualizadoSource: Space-Track

Época: Sep 14, 2026, 03:13 UTC

1 02872U 67053F   26257.13444394  .00000060  00000-0  77861-4 0  9993
2 02872  69.9745 169.2919 0007510 338.2376  21.8411 13.99619858 22654

Acompanhe SURCAL 159 em tempo real com AllMySat

Download on the App Store